Rockwall, TX

3:04 AM CDT on June 24, 2017 (GMT -0500)
Rockwall

Weather History for KF46 - October, 2012

Change the Weather History Date:

Monday, October 1, 2012

  Actual Average (KDFW) Record (KDFW)
Temperature  
Mean Temperature 70 °F -  
Max Temperature 82 °F 81 °F 102 °F (1979)
Min Temperature 57 °F 60 °F 42 °F (1984)
Cooling Degree Days 4    
Growing Degree Days 20 (Base 50)    
Moisture  
Dew Point 54 °F    
Average Humidity 63    
Maximum Humidity 96    
Minimum Humidity 31    
Precipitation  
Precipitation 0.00 in - - ()
Sea Level Pressure  
Sea Level Pressure 29.82 in    
Wind  
Wind Speed 6 mph ()    
Max Wind Speed 15 mph    
Max Gust Speed 25 mph    
Visibility 10.0 miles    
Events      
Averages and records for this station are not official NWS values.
T = Trace of Precipitation, MM = Missing Value Source: Averaged Metar Reports

Daily Weather History Graph

Daily Weather History Graph

Search for Another Location

Airport or City:

Trip Planner

Search our weather history database for the weather conditions in past years. The results will help you decide how hot, cold, wet, or windy it might be!

Date:

Astronomy

Oct. 01, 2012 Rise Set
Actual Time 7:20 AM CDT 7:09 PM CDT
Civil Twilight 6:55 AM CDT 7:34 PM CDT
Nautical Twilight 6:27 AM CDT 8:02 PM CDT
Astronomical Twilight 5:58 AM CDT 8:31 PM CDT
Moon 7:56 PM CDT (10/1) 8:43 AM CDT (10/1)
Length of Visible Light 12h 38m
Length of Day
11h 49m
Full, 98% of the Moon is Illuminated
Oct 1
Full
Oct 8
Last Quarter
Oct 15
New
Oct 21
First Quarter
Oct 29
Full

Hourly Weather History & Observations

Time (CDT) Temp. Dew Point Humidity Pressure Visibility Wind Dir Wind Speed Gust Speed Precip Events Conditions
12:15 AM 60.8 °F 54.5 °F 80% 29.85 in 10.0 mi NW 3.5 mph - N/A   Clear
12:35 AM 59.4 °F 56.7 °F 91% 29.84 in 10.0 mi Calm Calm - N/A   Clear
12:55 AM 60.1 °F 54.5 °F 82% 29.83 in 10.0 mi NW 3.5 mph - N/A   Clear
1:15 AM 59.0 °F 54.5 °F 85% 29.83 in 10.0 mi NW 4.6 mph - N/A   Clear
1:35 AM 57.9 °F 55.2 °F 91% 29.82 in 10.0 mi Calm Calm - N/A   Clear
1:55 AM 59.0 °F 55.6 °F 88% 29.82 in 10.0 mi NW 4.6 mph - N/A   Clear
2:15 AM 58.8 °F 56.3 °F 91% 29.82 in 10.0 mi NW 4.6 mph - N/A   Clear
2:35 AM 58.5 °F 56.1 °F 92% 29.82 in 10.0 mi NW 4.6 mph - N/A   Clear
2:55 AM 58.1 °F 56.8 °F 96% 29.82 in 10.0 mi NNW 3.5 mph - N/A   Clear
3:15 AM 59.2 °F 56.3 °F 90% 29.82 in 10.0 mi WNW 3.5 mph - N/A   Clear
3:35 AM 59.0 °F 56.7 °F 92% 29.82 in 10.0 mi Calm Calm - N/A   Clear
3:55 AM 59.0 °F 56.8 °F 93% 29.81 in 10.0 mi Calm Calm - N/A   Clear
4:15 AM 57.9 °F 56.3 °F 94% 29.81 in 10.0 mi NW 3.5 mph - N/A   Clear
4:35 AM 57.6 °F 56.5 °F 96% 29.81 in 10.0 mi Calm Calm - N/A   Clear
4:55 AM 57.7 °F 56.3 °F 95% 29.80 in 10.0 mi NW 4.6 mph - N/A   Clear
5:15 AM 58.3 °F 56.8 °F 95% 29.81 in 10.0 mi NW 5.8 mph - N/A   Clear
5:35 AM 58.5 °F 57.2 °F 96% 29.81 in 10.0 mi WNW 6.9 mph - N/A   Clear
5:55 AM 59.4 °F 57.6 °F 94% 29.82 in 10.0 mi NW 5.8 mph - N/A   Clear
6:15 AM 59.0 °F 57.2 °F 94% 29.82 in 10.0 mi NW 6.9 mph - N/A   Clear
6:35 AM 59.5 °F 57.2 °F 92% 29.82 in 10.0 mi NW 4.6 mph - N/A   Clear
6:55 AM 59.0 °F 57.2 °F 94% 29.83 in 10.0 mi NW 5.8 mph - N/A   Clear
7:15 AM 59.9 °F 57.2 °F 91% 29.82 in 10.0 mi NNW 8.1 mph - N/A   Clear
7:35 AM 59.4 °F 56.7 °F 91% 29.83 in 10.0 mi NW 4.6 mph - N/A   Clear
7:55 AM 59.2 °F 57.2 °F 93% 29.83 in 10.0 mi NW 5.8 mph - N/A   Clear
8:15 AM 60.8 °F 57.9 °F 90% 29.84 in 10.0 mi NW 8.1 mph - N/A   Clear
8:55 AM 63.3 °F 58.5 °F 84% 29.83 in 10.0 mi North 5.8 mph - N/A   Clear
9:15 AM 65.1 °F 58.6 °F 79% 29.84 in 10.0 mi North 9.2 mph - N/A   Clear
9:35 AM 66.4 °F 57.4 °F 73% 29.84 in 10.0 mi NNW 10.4 mph - N/A   Clear
9:55 AM 68.2 °F 57.4 °F 68% 29.84 in 10.0 mi NNW 12.7 mph 17.3 mph N/A   Clear
10:15 AM 70.2 °F 56.7 °F 62% 29.84 in 10.0 mi North 13.8 mph - N/A   Clear
10:35 AM 71.8 °F 55.8 °F 57% 29.84 in 10.0 mi North 11.5 mph 20.7 mph N/A   Clear
10:55 AM 72.9 °F 55.9 °F 55% 29.85 in 10.0 mi NNW 15.0 mph 20.7 mph N/A   Clear
11:15 AM 73.8 °F 55.6 °F 53% 29.85 in 10.0 mi North 15.0 mph 19.6 mph N/A   Clear
11:35 AM 75.6 °F 55.9 °F 50% 29.84 in 10.0 mi NNW 13.8 mph - N/A   Clear
11:55 AM 76.5 °F 54.7 °F 47% 29.84 in 10.0 mi NNW 12.7 mph 19.6 mph N/A   Clear
12:15 PM 77.4 °F 53.8 °F 44% 29.84 in 10.0 mi NNW 12.7 mph - N/A   Clear
12:35 PM 77.9 °F 52.5 °F 41% 29.84 in 10.0 mi North 11.5 mph - N/A   Clear
12:55 PM 78.3 °F 52.7 °F 41% 29.83 in 10.0 mi North 9.2 mph 16.1 mph N/A   Clear
1:15 PM 79.5 °F 52.7 °F 39% 29.82 in 10.0 mi North 10.4 mph - N/A   Clear
1:35 PM 81.0 °F 52.7 °F 37% 29.82 in 10.0 mi North 12.7 mph 21.9 mph N/A   Clear
1:55 PM 80.6 °F 50.7 °F 35% 29.81 in 10.0 mi NNE 11.5 mph 18.4 mph N/A   Clear
2:15 PM 80.8 °F 49.8 °F 34% 29.81 in 10.0 mi North 13.8 mph 19.6 mph N/A   Clear
2:35 PM 80.8 °F 48.9 °F 33% 29.80 in 10.0 mi North 11.5 mph 21.9 mph N/A   Clear
2:55 PM 81.3 °F 49.1 °F 32% 29.79 in 10.0 mi North 15.0 mph 21.9 mph N/A   Clear
3:15 PM 81.9 °F 50.5 °F 34% 29.79 in 10.0 mi NNW 12.7 mph 19.6 mph N/A   Clear
3:35 PM 82.0 °F 50.5 °F 33% 29.79 in 10.0 mi NNE 13.8 mph 20.7 mph N/A   Clear
3:55 PM 81.0 °F 50.0 °F 34% 29.78 in 10.0 mi North 10.4 mph 17.3 mph N/A   Clear
4:15 PM 81.0 °F 48.9 °F 33% 29.79 in 10.0 mi North 11.5 mph 21.9 mph N/A   Clear
4:35 PM 81.7 °F 48.6 °F 31% 29.78 in 10.0 mi North 13.8 mph 25.3 mph N/A   Clear
4:55 PM 81.3 °F 48.9 °F 32% 29.78 in 10.0 mi NNE 15.0 mph 19.6 mph N/A   Clear
5:15 PM 81.5 °F 49.3 °F 32% 29.78 in 10.0 mi North 8.1 mph - N/A   Scattered Clouds
5:35 PM 81.0 °F 48.6 °F 32% 29.78 in 10.0 mi NNE 9.2 mph 19.6 mph N/A   Clear
5:55 PM 80.1 °F 50.0 °F 35% 29.78 in 10.0 mi North 8.1 mph - N/A   Scattered Clouds
6:15 PM 79.5 °F 50.7 °F 36% 29.78 in 10.0 mi North 5.8 mph - N/A   Scattered Clouds
6:35 PM 78.1 °F 50.5 °F 38% 29.79 in 10.0 mi North 5.8 mph - N/A   Scattered Clouds
6:55 PM 76.6 °F 51.1 °F 41% 29.79 in 10.0 mi NNW 5.8 mph - N/A   Scattered Clouds
7:15 PM 74.8 °F 52.3 °F 45% 29.79 in 10.0 mi North 5.8 mph - N/A   Scattered Clouds
7:35 PM 74.1 °F 52.5 °F 47% 29.80 in 10.0 mi NNW 4.6 mph - N/A   Mostly Cloudy
7:55 PM 73.8 °F 52.2 °F 47% 29.80 in 10.0 mi NNW 4.6 mph - N/A   Scattered Clouds
8:15 PM 71.8 °F 53.4 °F 52% 29.81 in 10.0 mi Calm Calm - N/A   Scattered Clouds
8:35 PM 71.8 °F 53.1 °F 52% 29.82 in 10.0 mi NW 5.8 mph - N/A   Clear
9:15 PM 71.4 °F 54.0 °F 54% 29.83 in 10.0 mi NNW 4.6 mph - N/A   Mostly Cloudy
9:35 PM 71.4 °F 53.6 °F 53% 29.84 in 10.0 mi NW 4.6 mph - N/A   Overcast
9:55 PM 70.5 °F 53.6 °F 55% 29.84 in 10.0 mi NW 4.6 mph - N/A   Mostly Cloudy
10:15 PM 70.3 °F 54.7 °F 58% 29.84 in 10.0 mi NNW 5.8 mph - N/A   Mostly Cloudy
10:55 PM 70.7 °F 52.7 °F 53% 29.86 in 10.0 mi North 6.9 mph - N/A   Scattered Clouds
11:15 PM 71.2 °F 52.9 °F 52% 29.86 in 10.0 mi North 9.2 mph - N/A   Mostly Cloudy
11:35 PM 70.3 °F 52.9 °F 54% 29.86 in 10.0 mi NNE 6.9 mph - N/A   Scattered Clouds
11:55 PM 69.3 °F 53.4 °F 57% 29.86 in 10.0 mi NNE 6.9 mph - N/A   Clear